• In Uzbekistan
  • List of Countries
  • For 7 days
  • Water Temperature
  • Satellite Maps
  • Weather Map
  • Weather Widgets
  • user-avatar
    Login

    Hourly Weather Samos

    Today, 18 August, Friday

    Time Temperature Precipitation Wind Pressure Humidity
    00:00 +23°C° 0 mm 5 mps 716 mmHg 63%
    01:00 +23°C° 0 mm 5 mps 716 mmHg 65%
    02:00 +22°C° 0 mm 6 mps 716 mmHg 66%
    03:00 +22°C° 0 mm 6 mps 716 mmHg 68%
    04:00 +22°C° 0 mm 5 mps 716 mmHg 70%
    05:00 +21°C° 0 mm 5 mps 716 mmHg 72%
    06:00 +23°C° 0 mm 5 mps 716 mmHg 67%
    07:00 +25°C° 0 mm 5 mps 717 mmHg 62%
    08:00 +26°C° 0 mm 5 mps 717 mmHg 57%
    09:00 +28°C° 0 mm 4 mps 717 mmHg 51%
    10:00 +30°C° 0 mm 4 mps 717 mmHg 46%
    11:00 +32°C° 0 mm 4 mps 718 mmHg 40%
    12:00 +33°C° 0 mm 4 mps 718 mmHg 37%
    13:00 +35°C° 0 mm 5 mps 718 mmHg 34%
    14:00 +36°C° 0 mm 5 mps 718 mmHg 30%
    15:00 +35°C° 0 mm 5 mps 718 mmHg 31%
    16:00 +35°C° 0 mm 6 mps 718 mmHg 31%
    17:00 +35°C° 0 mm 6 mps 717 mmHg 31%
    18:00 +33°C° 0 mm 6 mps 717 mmHg 37%
    19:00 +29°C° 0 mm 6 mps 717 mmHg 43%
    20:00 +27°C° 0 mm 6 mps 717 mmHg 49%
    21:00 +26°C° 0 mm 6 mps 718 mmHg 52%
    22:00 +25°C° 0 mm 5 mps 718 mmHg 55%
    23:00 +23°C° 0 mm 5 mps 718 mmHg 58%

    Tomorrow, 19 August, Saturday

    Time Temperature Precipitation Wind Pressure Humidity
    00:00 +23°C° 0 mm 5 mps 718 mmHg 60%
    01:00 +22°C° 0 mm 5 mps 718 mmHg 61%
    02:00 +22°C° 0 mm 4 mps 717 mmHg 62%
    03:00 +22°C° 0 mm 4 mps 717 mmHg 63%
    04:00 +21°C° 0 mm 4 mps 717 mmHg 65%
    05:00 +21°C° 0 mm 4 mps 717 mmHg 66%
    06:00 +22°C° 0 mm 4 mps 717 mmHg 61%
    07:00 +25°C° 0 mm 5 mps 718 mmHg 55%
    08:00 +27°C° 0 mm 5 mps 718 mmHg 50%
    09:00 +29°C° 0 mm 4 mps 718 mmHg 44%
    10:00 +32°C° 0 mm 4 mps 718 mmHg 39%
    11:00 +35°C° 0 mm 4 mps 719 mmHg 33%
    12:00 +35°C° 0 mm 4 mps 718 mmHg 31%
    13:00 +36°C° 0 mm 4 mps 718 mmHg 28%
    14:00 +37°C° 0 mm 5 mps 718 mmHg 26%
    15:00 +36°C° 0 mm 5 mps 718 mmHg 27%
    16:00 +36°C° 0 mm 5 mps 718 mmHg 28%
    17:00 +35°C° 0 mm 6 mps 718 mmHg 29%
    18:00 +33°C° 0 mm 5 mps 718 mmHg 36%
    19:00 +29°C° 0 mm 5 mps 718 mmHg 42%
    20:00 +27°C° 0 mm 5 mps 718 mmHg 49%
    21:00 +26°C° 0 mm 5 mps 718 mmHg 52%
    22:00 +25°C° 0 mm 4 mps 718 mmHg 55%
    23:00 +23°C° 0 mm 4 mps 718 mmHg 58%

    Day after tomorrow, 20 August, Sunday

    Time Temperature Precipitation Wind Pressure Humidity
    00:00 +23°C° 0 mm 4 mps 718 mmHg 58%
    01:00 +23°C° 0 mm 4 mps 718 mmHg 59%
    02:00 +22°C° 0 mm 3 mps 718 mmHg 59%
    03:00 +22°C° 0 mm 3 mps 718 mmHg 60%
    04:00 +21°C° 0 mm 4 mps 718 mmHg 61%
    05:00 +21°C° 0 mm 4 mps 717 mmHg 63%
    06:00 +23°C° 0 mm 4 mps 718 mmHg 57%
    07:00 +25°C° 0 mm 4 mps 718 mmHg 51%
    08:00 +27°C° 0 mm 4 mps 718 mmHg 45%
    09:00 +29°C° 0 mm 4 mps 718 mmHg 39%
    10:00 +33°C° 0 mm 3 mps 718 mmHg 33%
    11:00 +35°C° 0 mm 3 mps 719 mmHg 27%
    12:00 +36°C° 0 mm 4 mps 718 mmHg 25%
    13:00 +36°C° 0 mm 4 mps 718 mmHg 23%
    14:00 +37°C° 0 mm 4 mps 718 mmHg 21%
    15:00 +36°C° 0 mm 5 mps 718 mmHg 22%
    16:00 +36°C° 0 mm 5 mps 717 mmHg 23%
    17:00 +35°C° 0 mm 6 mps 717 mmHg 24%
    18:00 +32°C° 0 mm 5 mps 717 mmHg 31%
    19:00 +29°C° 0 mm 5 mps 717 mmHg 37%
    20:00 +26°C° 0 mm 4 mps 717 mmHg 43%
    21:00 +26°C° 0 mm 4 mps 717 mmHg 46%
    22:00 +25°C° 0 mm 4 mps 717 mmHg 48%
    23:00 +24°C° 0 mm 3 mps 717 mmHg 51%

    21 August, Monday

    Time Temperature Precipitation Wind Pressure Humidity
    00:00 +24°C° 0 mm 3 mps 717 mmHg 52%
    01:00 +22°C° 0 mm 3 mps 717 mmHg 53%
    02:00 +22°C° 0 mm 3 mps 717 mmHg 54%
    03:00 +22°C° 0 mm 3 mps 717 mmHg 55%
    04:00 +22°C° 0 mm 3 mps 716 mmHg 55%
    05:00 +22°C° 0 mm 3 mps 716 mmHg 56%
    06:00 +24°C° 0 mm 3 mps 716 mmHg 52%
    07:00 +26°C° 0 mm 2 mps 717 mmHg 48%
    08:00 +28°C° 0 mm 2 mps 717 mmHg 43%
    09:00 +29°C° 0 mm 2 mps 717 mmHg 39%
    10:00 +31°C° 0 mm 3 mps 717 mmHg 34%
    11:00 +34°C° 0 mm 3 mps 717 mmHg 29%
    12:00 +35°C° 0 mm 4 mps 717 mmHg 27%
    13:00 +35°C° 0 mm 4 mps 717 mmHg 26%
    14:00 +36°C° 0 mm 5 mps 717 mmHg 25%
    15:00 +35°C° 0 mm 5 mps 717 mmHg 27%
    16:00 +34°C° 0 mm 5 mps 717 mmHg 28%
    17:00 +33°C° 0 mm 5 mps 717 mmHg 30%
    18:00 +30°C° 0 mm 5 mps 717 mmHg 36%
    19:00 +28°C° 0 mm 4 mps 717 mmHg 42%
    20:00 +26°C° 0 mm 4 mps 717 mmHg 48%
    21:00 +25°C° 0 mm 3 mps 717 mmHg 50%
    22:00 +24°C° 0 mm 3 mps 718 mmHg 52%
    23:00 +22°C° 0 mm 3 mps 718 mmHg 55%

    22 August, Tuesday

    Time Temperature Precipitation Wind Pressure Humidity
    00:00 +22°C° 0 mm 3 mps 718 mmHg 55%
    01:00 +22°C° 0 mm 3 mps 718 mmHg 55%
    02:00 +21°C° 0 mm 3 mps 718 mmHg 55%
    03:00 +21°C° 0 mm 3 mps 718 mmHg 55%
    04:00 +21°C° 0 mm 3 mps 718 mmHg 55%
    05:00 +21°C° 0 mm 3 mps 718 mmHg 54%
    06:00 +22°C° 0 mm 3 mps 718 mmHg 48%
    07:00 +25°C° 0 mm 3 mps 718 mmHg 43%
    08:00 +27°C° 0 mm 3 mps 719 mmHg 37%
    09:00 +29°C° 0 mm 3 mps 719 mmHg 33%
    10:00 +31°C° 0 mm 3 mps 719 mmHg 29%
    11:00 +34°C° 0 mm 3 mps 719 mmHg 25%
    12:00 +35°C° 0 mm 4 mps 719 mmHg 25%
    13:00 +35°C° 0 mm 5 mps 719 mmHg 25%
    14:00 +36°C° 0 mm 6 mps 719 mmHg 25%
    15:00 +35°C° 0 mm 6 mps 719 mmHg 27%
    16:00 +34°C° 0 mm 6 mps 718 mmHg 30%
    17:00 +33°C° 0 mm 7 mps 718 mmHg 32%
    18:00 +30°C° 0 mm 6 mps 719 mmHg 38%
    19:00 +28°C° 0 mm 6 mps 719 mmHg 44%
    20:00 +26°C° 0 mm 6 mps 719 mmHg 50%
    21:00 +24°C° 0 mm 6 mps 719 mmHg 53%
    22:00 +23°C° 0 mm 5 mps 719 mmHg 55%
    23:00 +22°C° 0 mm 5 mps 719 mmHg 58%

    23 August, Wednesday

    Time Temperature Precipitation Wind Pressure Humidity
    00:00 +21°C° 0 mm 5 mps 719 mmHg 61%
    01:00 +20°C° 0 mm 5 mps 719 mmHg 63%
    02:00 +19°C° 0 mm 6 mps 719 mmHg 66%
    03:00 +17°C° 0 mm 6 mps 719 mmHg 67%
    04:00 +17°C° 0 mm 6 mps 719 mmHg 69%
    05:00 +16°C° 0 mm 6 mps 719 mmHg 70%
    06:00 +18°C° 0 mm 7 mps 719 mmHg 64%
    07:00 +21°C° 0 mm 7 mps 720 mmHg 57%
    08:00 +23°C° 0 mm 7 mps 720 mmHg 50%
    09:00 +27°C° 0 mm 7 mps 720 mmHg 41%
    10:00 +29°C° 0 mm 7 mps 720 mmHg 32%
    11:00 +32°C° 0 mm 7 mps 720 mmHg 23%
    12:00 +33°C° 0 mm 8 mps 720 mmHg 20%
    13:00 +34°C° 0 mm 8 mps 720 mmHg 16%
    14:00 +35°C° 0 mm 8 mps 720 mmHg 13%
    15:00 +35°C° 0 mm 8 mps 719 mmHg 13%
    16:00 +35°C° 0 mm 9 mps 719 mmHg 13%
    17:00 +34°C° 0 mm 9 mps 719 mmHg 13%
    18:00 +32°C° 0 mm 9 mps 719 mmHg 19%
    19:00 +28°C° 0 mm 8 mps 719 mmHg 24%
    20:00 +24°C° 0 mm 8 mps 719 mmHg 29%
    21:00 +22°C° 0 mm 8 mps 719 mmHg 35%
    22:00 +21°C° 0 mm 7 mps 719 mmHg 40%
    23:00 +20°C° 0 mm 7 mps 719 mmHg 45%
    Show more